Millington, TN

2:16 PM CDT on August 18, 2017 (GMT -0500)
Millington Municipal

Weather History for KNQA - August, 2013

Change the Weather History Date:

Saturday, August 24, 2013

  Actual Average Record
Temperature  
Mean Temperature 81 °F -  
Max Temperature 91 °F 89 °F 100 °F (2007)
Min Temperature 71 °F 69 °F 59 °F (2006)
Cooling Degree Days 16    
Growing Degree Days 31 (Base 50)    
Moisture  
Dew Point 73 °F    
Average Humidity 79    
Maximum Humidity 100    
Minimum Humidity 55    
Precipitation  
Precipitation 0.00 in - - ()
Sea Level Pressure  
Sea Level Pressure 30.10 in    
Wind  
Wind Speed 3 mph (NE)    
Max Wind Speed 8 mph    
Max Gust Speed -    
Visibility 10 miles    
Events      
Averages and records for this station are not official NWS values.
T = Trace of Precipitation, MM = Missing Value Source: NWS Daily Summary

Daily Weather History Graph

Daily Weather History Graph

Search for Another Location

Airport or City:

Trip Planner

Search our weather history database for the weather conditions in past years. The results will help you decide how hot, cold, wet, or windy it might be!

Date:

Astronomy

Aug. 24, 2013 Rise Set
Actual Time 6:26 AM CDT 7:36 PM CDT
Civil Twilight 5:59 AM CDT 8:03 PM CDT
Nautical Twilight 5:28 AM CDT 8:34 PM CDT
Astronomical Twilight 4:55 AM CDT 9:07 PM CDT
Moon 9:42 PM CDT (8/24) 10:14 AM CDT (8/24)
Length of Visible Light 14h 03m
Length of Day
13h 10m
Waning Gibbous, 84% of the Moon is Illuminated
Aug 24
Waning Gibbous
Aug 28
Last Quarter
Sep 5
New
Sep 12
First Quarter
Sep 19
Full

Hourly Weather History & Observations

Time (CDT) Temp. Heat Index Dew Point Humidity Pressure Visibility Wind Dir Wind Speed Gust Speed Precip Events Conditions
12:55 AM 77.0 °F - 71.6 °F 83% 30.06 in 10.0 mi ENE 3.5 mph - N/A   Partly Cloudy
1:55 AM 77.0 °F - 71.6 °F 83% 30.06 in 10.0 mi ENE 4.6 mph - N/A   Clear
2:55 AM 75.2 °F - 71.6 °F 89% 30.06 in 10.0 mi Calm Calm - N/A   Clear
3:15 AM 75.2 °F - 71.6 °F 89% 30.07 in 10.0 mi Calm Calm - N/A   Clear
3:35 AM 73.4 °F - 71.6 °F 94% 30.08 in 10.0 mi Calm Calm - N/A   Clear
3:55 AM 73.4 °F - 71.6 °F 94% 30.08 in 10.0 mi Calm Calm - N/A   Clear
4:15 AM 73.4 °F - 71.6 °F 94% 30.07 in 10.0 mi Calm Calm - N/A   Clear
4:35 AM 71.6 °F - 71.6 °F 100% 30.08 in 7.0 mi Calm Calm - N/A   Clear
4:55 AM 73.4 °F - 71.6 °F 94% 30.08 in 8.0 mi Calm Calm - N/A   Clear
5:15 AM 71.6 °F - 71.6 °F 100% 30.08 in 8.0 mi Calm Calm - N/A   Clear
5:35 AM 73.4 °F - 71.6 °F 94% 30.08 in 9.0 mi Calm Calm - N/A   Clear
5:55 AM 73.4 °F - 71.6 °F 94% 30.09 in 10.0 mi NE 3.5 mph - N/A   Clear
6:55 AM 73.4 °F - 71.6 °F 94% 30.12 in 8.0 mi ENE 3.5 mph - N/A   Clear
7:55 AM 75.2 °F - 71.6 °F 89% 30.13 in 10.0 mi ENE 3.5 mph - N/A   Clear
8:55 AM 80.6 °F 85.4 °F 73.4 °F 79% 30.14 in 10.0 mi Variable 3.5 mph - N/A   Clear
9:55 AM 84.2 °F 92.3 °F 75.2 °F 74% 30.15 in 10.0 mi Variable 4.6 mph - N/A   Clear
10:55 AM 87.8 °F 97.6 °F 75.2 °F 66% 30.15 in 10.0 mi NNE 4.6 mph - N/A   Clear
11:55 AM 89.6 °F 99.8 °F 75.2 °F 62% 30.13 in 10.0 mi ENE 6.9 mph - N/A   Scattered Clouds
12:55 PM 89.6 °F 99.8 °F 75.2 °F 62% 30.13 in 10.0 mi ENE 4.6 mph - N/A   Mostly Cloudy
1:55 PM 91.4 °F 100.1 °F 73.4 °F 55% 30.12 in 10.0 mi NNE 6.9 mph - N/A   Clear
2:55 PM 91.4 °F 102.5 °F 75.2 °F 59% 30.11 in 10.0 mi NE 5.8 mph - N/A   Scattered Clouds
3:55 PM 91.4 °F 102.5 °F 75.2 °F 59% 30.10 in 10.0 mi NE 8.1 mph - N/A   Scattered Clouds
4:55 PM 91.4 °F 100.1 °F 73.4 °F 55% 30.09 in 10.0 mi Variable 6.9 mph - N/A   Scattered Clouds
5:55 PM 89.6 °F 98.2 °F 73.4 °F 59% 30.09 in 10.0 mi Variable 5.8 mph - N/A   Partly Cloudy
6:55 PM 87.8 °F 97.6 °F 75.2 °F 66% 30.10 in 10.0 mi Variable 3.5 mph - N/A   Partly Cloudy
7:55 PM 84.2 °F 90.9 °F 73.4 °F 70% 30.11 in 10.0 mi NE 3.5 mph - N/A   Clear
8:55 PM 82.4 °F 88.2 °F 73.4 °F 74% 30.13 in 10.0 mi NE 3.5 mph - N/A   Clear
9:55 PM 80.6 °F 85.4 °F 73.4 °F 79% 30.15 in 10.0 mi NE 3.5 mph - N/A   Clear
10:55 PM 80.6 °F 85.4 °F 73.4 °F 79% 30.15 in 10.0 mi ENE 4.6 mph - N/A   Clear
11:55 PM 80.6 °F 85.4 °F 73.4 °F 79% 30.15 in 10.0 mi NE 4.6 mph - N/A   Clear